Location: Passo di Treia
(43.2833°N, 13.3333°E)
Time: 11:15:07
(UTC+00:00)

CZ-4 R/B - Pass Details

Date: 09 December 2019
Orbit: 533 x 598 km, 97.7° (Epoch: 24 January)

Event Time Altitude Azimuth Distance (km) Brightness Sun altitude
Rises 17:03:56 0° 154° (SSE) 2,717 4.8 -16.3°
Reaches altitude 10° 17:06:06 10° 149° (SSE) 1,818 3.8 -16.7°
Maximum altitude 17:09:54 52° 73° (ENE) 684 1.4 -17.3°
Drops below altitude 10° 17:13:41 10° 357° (N) 1,805 3.8 -18.0°
Sets 17:15:50 0° 353° (N) 2,696 4.8 -18.4°
